1487271600.04,54536,14.63,74226.0,-1.67,-31.61,-31.61,0,*51
1487271601.28,54537,14.63,74230.5,-1.67,-31.33,-31.51,0,*54
1487271602.49,54538,14.63,74228.5,-1.67,-31.33,-31.45,0,*5E
1487271603.71,54539,14.63,74228.5,-1.67,-31.33,-31.45,0,*5F
1487271604.92,54540,14.63,74230.5,-1.67,-31.33,-31.33,0,*50
1487271606.13,54541,14.63,74228.8,-1.67,-31.29,-31.45,0,*5B
1487271607.35,54542,14.63,74228.8,-1.67,-31.33,-31.45,0,*53
1487271608.58,54543,14.63,74230.8,-1.69,-31.33,-31.33,0,*5D
1487271609.82,54544,14.63,74230.3,-1.69,-31.29,-31.45,0,*50
1487271611.06,54545,14.63,74230.0,-1.69,-31.17,-31.29,0,*56
1487271612.29,54546,14.63,74230.3,-1.69,-31.33,-31.29,0,*53
1487271613.51,54547,14.63,74228.5,-1.71,-31.33,-31.29,0,*5B
1487271614.74,54548,14.63,74230.0,-1.69,-31.17,-31.17,0,*56
1487271615.98,54549,14.63,74226.3,-1.69,-30.83,-31.01,0,*5C
1487271617.24,54550,14.63,74224.8,-1.69,-31.05,-31.11,0,*5A
1487271618.5,54551,14.63,74220.8,-1.71,-31.39,-31.39,0,*57
1487271619.73,54552,14.63,74226.3,-1.71,-31.33,-31.39,0,*5E
1487271620.97,54553,14.63,74222.0,-1.71,-31.33,-31.39,0,*5F
1487271622.23,54554,14.63,74222.8,-1.71,-31.51,-31.51,0,*52
1487271623.47,54555,14.63,74224.0,-1.71,-31.57,-31.67,0,*50
1487271624.7,54556,14.63,74228.8,-1.71,-31.57,-31.67,0,*53
1487271625.93,54557,14.63,74226.8,-1.71,-31.67,-31.73,0,*54
1487271627.21,54558,14.63,74228.0,-1.73,-31.57,-31.73,0,*5A
1487271628.47,54559,14.63,74230.5,-1.73,-31.57,-31.67,0,*5E
1487271629.72,54560,14.63,74224.8,-1.73,-31.33,-31.39,0,*5D
1487271631.01,54561,14.63,74224.8,-1.73,-30.77,-30.89,0,*57
1487271632.22,54562,14.63,74228.0,-1.71,-31.05,-31.17,0,*54
1487271633.48,54563,14.63,74228.0,-1.73,-30.89,-31.01,0,*55
1487271634.74,54564,14.63,74226.3,-1.75,-30.95,-30.95,0,*55
1487271636.0,54565,14.63,74224.8,-1.73,-30.89,-31.05,0,*57
1487271637.23,54566,14.63,74226.5,-1.75,-30.95,-31.05,0,*5F
1487271638.49,54567,14.63,74226.8,-1.73,-31.17,-31.23,0,*57
1487271639.75,54568,14.63,74224.0,-1.73,-31.33,-31.39,0,*55
1487271640.98,54569,14.63,74224.8,-1.73,-31.33,-31.33,0,*5E
1487271642.26,54570,14.63,74224.3,-1.73,-31.39,-31.51,0,*58
1487271643.5,54571,14.63,74224.8,-1.75,-31.45,-31.61,0,*57
1487271644.76,54572,14.63,74222.0,-1.73,-31.23,-31.33,0,*55
1487271646.02,54573,14.63,74224.0,-1.75,-31.39,-31.39,0,*53
1487271647.26,54574,14.63,74224.3,-1.75,-31.29,-31.39,0,*55
1487271648.49,54575,14.63,74226.8,-1.73,-31.33,-31.33,0,*53
1487271649.72,54576,14.63,74228.0,-1.75,-31.45,-31.57,0,*55
1487271650.96,54577,14.63,74226.8,-1.75,-31.45,-31.57,0,*54
1487271652.21,54578,14.63,74228.0,-1.77,-31.45,-31.45,0,*5A
1487271653.45,54579,14.63,74222.3,-1.77,-31.29,-31.29,0,*5B
1487271654.73,54580,14.63,74220.3,-1.77,-30.95,-30.95,0,*5D
1487271655.97,54581,14.63,74230.0,-1.75,-30.83,-30.95,0,*59
1487271657.2,54582,14.63,74222.5,-1.77,-31.05,-31.05,0,*5F
1487271658.47,54583,14.63,74230.8,-1.77,-30.95,-31.05,0,*56
1487271659.74,54584,14.63,74232.0,-1.75,-31.23,-31.23,0,*5B
1487271661.01,54585,14.63,74234.5,-1.77,-31.23,-31.29,0,*52
1487271662.27,54586,14.63,74232.0,-1.77,-31.29,-31.39,0,*5A
1487271663.57,54587,14.63,74228.8,-1.77,-31.23,-31.23,0,*5A
1487271664.84,54588,14.63,74232.0,-1.77,-30.73,-30.83,0,*5A
1487271666.07,54589,14.63,74228.8,-1.81,-30.95,-31.05,0,*55
1487271667.34,54590,14.63,74230.0,-1.77,-30.67,-30.73,0,*59
1487271668.61,54591,14.63,74230.3,-1.77,-30.73,-30.83,0,*52
1487271669.88,54592,14.63,74228.3,-1.77,-30.67,-30.73,0,*5B
1487271671.14,54593,14.63,74224.0,-1.77,-30.33,-30.39,0,*55
1487271672.35,54594,14.63,74224.8,-1.75,-30.23,-30.33,0,*5B
1487271673.6,54595,14.63,74224.0,-1.75,-30.39,-30.55,0,*51
1487271674.84,54596,14.63,74222.8,-1.75,-30.51,-30.67,0,*5D
1487271676.1,54597,14.63,74226.5,-1.75,-30.51,-30.55,0,*5D
1487271677.34,54598,14.63,74226.3,-1.75,-30.55,-30.83,0,*5D
1487271678.57,54599,14.63,74226.3,-1.73,-30.45,-30.67,0,*51
1487271679.78,54600,14.63,74224.3,-1.75,-30.33,-30.45,0,*55
1487271681.01,54601,14.63,74226.0,-1.73,-30.45,-30.45,0,*53
1487271682.23,54602,14.63,74222.8,-1.73,-30.45,-30.45,0,*50
1487271683.48,54603,14.63,74226.8,-1.73,-30.45,-30.51,0,*54
1487271684.74,54604,14.63,74228.8,-1.73,-30.45,-30.51,0,*53
1487271685.99,54605,14.63,74228.8,-1.73,-30.45,-30.61,0,*51
1487271687.25,54606,14.63,74224.3,-1.71,-30.51,-30.51,0,*56
1487271688.48,54607,14.63,74224.3,-1.71,-30.45,-30.51,0,*52
1487271689.7,54608,14.63,74224.5,-1.71,-30.67,-30.83,0,*52
1487271690.98,54609,14.63,74226.0,-1.69,-30.55,-30.61,0,*57
1487271692.27,54610,14.63,74224.3,-1.69,-30.39,-30.61,0,*55
1487271693.53,54611,14.63,74224.8,-1.69,-30.45,-30.61,0,*5F
1487271694.8,54612,14.63,74226.3,-1.69,-30.39,-30.55,0,*50
1487271696.08,54613,14.63,74220.5,-1.69,-30.39,-30.55,0,*51
1487271697.31,54614,14.63,74214.5,-1.69,-30.23,-30.23,0,*5C
1487271698.55,54615,14.63,74218.8,-1.71,-30.11,-30.17,0,*52
1487271699.78,54616,14.63,74218.3,-1.71,-30.33,-30.39,0,*5D
1487271700.99,54617,14.63,74220.8,-1.67,-30.23,-30.27,0,*55
1487271702.2,54618,14.63,74222.3,-1.67,-30.27,-30.45,0,*5A
1487271703.45,54619,14.63,74222.0,-1.67,-30.39,-30.55,0,*55
1487271704.71,54620,14.63,74226.0,-1.69,-30.45,-30.73,0,*5E
1487271706.0,54621,14.63,74226.8,-1.69,-30.55,-30.73,0,*5E
1487271707.21,54622,14.63,74220.3,-1.67,-30.27,-30.27,0,*57
1487271708.45,54623,14.63,74222.3,-1.67,-30.27,-30.39,0,*59
1487271709.65,54624,14.63,74224.8,-1.67,-30.23,-30.27,0,*55
1487271710.91,54625,14.63,74224.5,-1.65,-30.23,-30.39,0,*59
1487271712.17,54626,14.63,74222.8,-1.65,-30.17,-30.23,0,*56
1487271713.37,54627,14.63,74218.5,-1.67,-30.11,-30.11,0,*52
1487271714.66,54628,14.63,74222.8,-1.65,-30.17,-30.17,0,*5F
1487271715.88,54629,14.63,74224.3,-1.67,-30.23,-30.33,0,*5D
1487271717.13,54630,14.63,74226.8,-1.65,-30.23,-30.51,0,*53
1487271718.39,54631,14.63,74222.8,-1.65,-30.23,-30.51,0,*52
1487271719.6,54632,14.63,74218.8,-1.63,-30.33,-30.45,0,*53
1487271720.86,54633,14.63,74220.0,-1.65,-30.51,-30.67,0,*50
1487271722.13,54634,14.63,74226.3,-1.65,-30.67,-30.73,0,*57
1487271723.39,54635,14.63,74220.3,-1.65,-30.55,-30.67,0,*52
1487271724.68,54636,14.63,74220.0,-1.65,-30.73,-30.77,0,*54
1487271725.97,54637,14.63,74216.0,-1.65,-30.51,-30.73,0,*51
1487271727.26,54638,14.63,74222.5,-1.65,-30.73,-30.77,0,*5A
1487271728.54,54639,14.63,74220.3,-1.65,-30.77,-30.95,0,*53
1487271729.84,54640,14.63,74220.3,-1.65,-30.73,-30.77,0,*55
1487271731.08,54641,14.63,74222.8,-1.63,-30.67,-30.73,0,*53
1487271732.37,54642,14.63,74226.5,-1.65,-30.73,-30.77,0,*57
1487271733.67,54643,14.63,74226.0,-1.65,-30.73,-30.77,0,*56
1487271734.96,54644,14.63,74224.3,-1.65,-30.77,-30.89,0,*54
1487271736.25,54645,14.63,74226.0,-1.65,-30.89,-30.89,0,*54
1487271737.54,54646,14.63,74228.0,-1.65,-30.77,-30.89,0,*56
1487271738.8,54647,14.63,74224.3,-1.65,-31.05,-31.11,0,*53
1487271740.04,54648,14.63,74230.0,-1.67,-31.11,-31.17,0,*5D
1487271741.31,54649,14.63,74228.3,-1.67,-30.95,-31.11,0,*57
1487271742.54,54650,14.63,74224.5,-1.67,-30.83,-30.95,0,*55
1487271743.78,54651,14.63,74222.8,-1.67,-30.83,-30.95,0,*54
1487271745.05,54652,14.63,74214.5,-1.65,-30.67,-30.73,0,*57
1487271746.29,54653,14.63,74218.0,-1.67,-30.73,-30.83,0,*5E
1487271747.58,54654,14.63,74210.5,-1.65,-30.55,-30.77,0,*54
1487271748.84,54655,14.63,74212.3,-1.65,-30.51,-30.67,0,*50
1487271750.07,54656,14.63,74214.8,-1.67,-30.61,-31.01,0,*53
1487271751.33,54657,14.63,74216.3,-1.67,-30.77,-30.95,0,*59
1487271752.57,54658,14.63,74218.3,-1.67,-30.77,-31.01,0,*5A
1487271753.85,54659,14.63,74220.5,-1.65,-30.73,-30.95,0,*51
1487271755.14,54660,14.63,74222.5,-1.65,-30.77,-30.89,0,*52
1487271756.35,54661,14.63,74220.3,-1.67,-31.01,-31.29,0,*5A
1487271757.56,54662,14.63,74222.0,-1.67,-31.17,-31.29,0,*5E
1487271758.77,54663,14.63,74222.5,-1.67,-31.01,-31.29,0,*58
1487271760.01,54664,14.63,74226.5,-1.67,-31.11,-31.17,0,*53
1487271761.25,54665,14.63,74224.5,-1.67,-30.83,-31.11,0,*5E
1487271762.49,54666,14.63,74224.8,-1.67,-30.95,-31.17,0,*5C
1487271763.73,54667,14.63,74228.0,-1.67,-31.11,-31.29,0,*5D
1487271764.97,54668,14.63,74222.5,-1.67,-30.83,-30.95,0,*5E
1487271766.24,54669,14.63,74222.8,-1.65,-30.67,-30.77,0,*5B
1487271767.48,54670,14.63,74224.0,-1.67,-30.77,-31.01,0,*50
1487271768.71,54671,14.63,74220.8,-1.67,-30.77,-31.01,0,*51
1487271769.95,54672,14.63,74220.5,-1.67,-30.95,-31.01,0,*5E
1487271771.16,54673,14.63,74222.5,-1.67,-30.83,-31.01,0,*58
1487271772.37,54674,14.63,74222.8,-1.67,-31.01,-31.17,0,*53
1487271773.6,54675,14.63,74218.5,-1.69,-31.17,-31.33,0,*5D
1487271774.84,54676,14.63,74220.8,-1.71,-31.17,-31.23,0,*56
1487271776.11,54677,14.63,74218.8,-1.69,-31.11,-31.29,0,*52
1487271777.34,54678,14.63,74220.8,-1.69,-31.29,-31.33,0,*5D
1487271778.6,54679,14.63,74222.3,-1.69,-31.29,-31.51,0,*58
1487271779.87,54680,14.63,74222.3,-1.71,-31.23,-31.39,0,*53
1487271781.08,54681,14.63,74220.5,-1.71,-31.17,-31.33,0,*5F
1487271782.32,54682,14.63,74220.8,-1.71,-31.17,-31.23,0,*5D
1487271783.58,54683,14.63,74222.8,-1.71,-31.23,-31.39,0,*50
1487271784.87,54684,14.63,74224.3,-1.73,-31.23,-31.51,0,*5B
1487271786.15,54685,14.63,74226.5,-1.73,-31.51,-31.51,0,*5F
1487271787.41,54686,14.63,74222.8,-1.73,-31.23,-31.33,0,*5D
1487271788.67,54687,14.63,74226.5,-1.73,-31.23,-31.33,0,*5C
1487271789.89,54688,14.63,74226.5,-1.75,-31.29,-31.45,0,*5E
1487271791.12,54689,14.63,74226.0,-1.75,-31.29,-31.61,0,*59
1487271792.38,54690,14.63,74224.5,-1.75,-31.39,-31.57,0,*55
1487271793.62,54691,14.63,74226.3,-1.75,-31.45,-31.61,0,*5A
1487271794.89,54692,14.63,74226.5,-1.75,-31.57,-31.61,0,*5A
1487271796.15,54693,14.63,74222.8,-1.75,-31.57,-31.61,0,*5B
1487271797.39,54694,14.63,74224.5,-1.75,-31.45,-31.61,0,*5F
1487271798.66,54695,14.63,74224.8,-1.75,-31.57,-31.61,0,*5D
1487271799.92,54696,14.63,74224.5,-1.75,-31.39,-31.61,0,*56
1487271801.18,54697,14.63,74224.3,-1.77,-31.45,-31.73,0,*5D
1487271802.42,54698,14.63,74226.5,-1.75,-31.57,-31.79,0,*59
1487271803.64,54699,14.63,74220.8,-1.81,-31.67,-31.85,0,*53
1487271804.93,54700,14.63,74226.8,-1.77,-31.57,-31.73,0,*51
1487271806.16,54701,14.63,74226.5,-1.81,-31.57,-31.67,0,*5C
1487271807.38,54702,14.63,74228.0,-1.81,-31.67,-31.73,0,*59
1487271808.64,54703,14.63,74224.5,-1.81,-31.57,-31.73,0,*5B
1487271809.89,54704,14.63,74226.5,-1.81,-31.57,-31.73,0,*5C
1487271811.15,54705,14.63,74230.5,-1.83,-31.57,-31.67,0,*5A
1487271812.41,54706,14.63,74226.0,-1.83,-31.57,-31.67,0,*59
1487271813.68,54707,14.63,74228.3,-1.83,-31.51,-31.73,0,*5B
1487271814.94,54708,14.63,74228.8,-1.83,-31.39,-31.67,0,*5F
1487271816.2,54709,14.63,74228.0,-1.83,-31.33,-31.51,0,*51
1487271817.45,54710,14.63,74226.8,-1.83,-31.33,-31.57,0,*5F
1487271818.69,54711,14.63,74230.5,-1.85,-31.39,-31.45,0,*51
1487271819.92,54712,14.63,74226.8,-1.85,-31.45,-31.73,0,*5C
1487271821.17,54713,14.63,74226.5,-1.85,-31.39,-31.39,0,*58
1487271822.43,54714,14.63,74228.0,-1.85,-31.11,-31.23,0,*5E
1487271823.67,54715,14.63,74228.0,-1.85,-31.23,-31.29,0,*54
1487271824.9,54716,14.63,74224.8,-1.85,-31.23,-31.29,0,*57
1487271826.17,54717,14.63,74228.8,-1.83,-31.23,-31.33,0,*5B
1487271827.41,54718,14.63,74228.5,-1.85,-31.39,-31.57,0,*5B
1487271828.67,54719,14.63,74228.3,-1.85,-31.23,-31.39,0,*59
1487271829.9,54720,14.63,74226.5,-1.85,-30.73,-31.05,0,*58
1487271831.13,54721,14.63,74222.5,-1.85,-31.01,-31.23,0,*59
1487271832.41,54722,14.63,74224.3,-1.87,-30.89,-31.11,0,*58
1487271833.64,54723,14.63,74222.8,-1.85,-31.01,-31.11,0,*5A
1487271834.84,54724,14.63,74224.3,-1.85,-31.05,-31.29,0,*52
1487271836.11,54725,14.63,74224.8,-1.87,-31.23,-31.45,0,*5F
1487271837.38,54726,14.63,74226.5,-1.87,-31.39,-31.57,0,*54
1487271838.61,54727,14.63,74220.3,-1.89,-31.33,-31.61,0,*54
1487271839.85,54728,14.63,74222.3,-1.89,-31.45,-31.61,0,*5A
1487271841.12,54729,14.63,74220.3,-1.87,-31.39,-31.61,0,*5E
1487271842.39,54730,14.63,74220.3,-1.87,-31.23,-31.45,0,*5B
1487271843.6,54731,14.63,74224.5,-1.89,-31.29,-31.45,0,*5E
1487271844.86,54732,14.63,74224.8,-1.89,-30.89,-31.11,0,*57
1487271846.11,54733,14.63,74222.3,-1.89,-30.73,-30.95,0,*5E
1487271847.37,54734,14.63,74222.8,-1.89,-30.73,-30.77,0,*55
1487271848.63,54735,14.63,74226.8,-1.87,-30.55,-30.83,0,*55
1487271849.86,54736,14.63,74226.8,-1.89,-30.95,-31.17,0,*58
1487271851.15,54737,14.63,74228.0,-1.87,-31.11,-31.39,0,*56
1487271852.38,54738,14.63,74226.0,-1.89,-31.29,-31.51,0,*52
1487271853.64,54739,14.63,74230.3,-1.89,-30.95,-31.11,0,*51
1487271854.89,54740,14.63,74230.3,-1.89,-30.73,-30.95,0,*5A
1487271856.15,54741,14.63,74230.0,-1.89,-30.73,-30.89,0,*56
1487271857.38,54742,14.63,74230.3,-1.89,-30.77,-31.05,0,*54
1487271858.61,54743,14.63,74230.0,-1.89,-30.27,-30.55,0,*54
1487271859.89,54744,14.63,74224.5,-1.87,-30.17,-30.39,0,*54
1487271861.14,54745,14.63,74224.0,-1.87,-30.05,-30.27,0,*59
1487271862.35,54746,14.63,74224.8,-1.89,-30.11,-30.27,0,*51
1487271863.6,54747,14.63,74226.3,-1.87,-30.01,-30.33,0,*5A
1487271864.83,54748,14.63,74226.3,-1.85,-30.23,-30.39,0,*5D
1487271866.06,54749,14.63,74226.0,-1.85,-30.55,-30.83,0,*5C
1487271867.31,54750,14.63,74230.3,-1.87,-30.23,-30.51,0,*58
1487271868.58,54751,14.63,74230.0,-1.87,-30.51,-30.55,0,*58
1487271869.81,54752,14.63,74228.5,-1.85,-30.39,-30.67,0,*56
1487271871.04,54753,14.63,74228.5,-1.85,-30.33,-30.51,0,*58
1487271872.27,54754,14.63,74228.0,-1.83,-30.11,-30.33,0,*5D
1487271873.54,54755,14.63,74234.3,-1.83,-29.95,-30.17,0,*5E
1487271874.77,54756,14.63,74224.5,-1.85,-30.01,-30.23,0,*59
1487271876.03,54757,14.63,74222.5,-1.83,-29.89,-30.11,0,*57
1487271877.29,54758,14.63,74224.5,-1.83,-29.73,-29.95,0,*59
1487271878.54,54759,14.63,74228.8,-1.83,-29.73,-29.95,0,*58
1487271879.8,54760,14.63,74224.0,-1.83,-29.79,-30.01,0,*5D
1487271881.06,54761,14.63,74230.8,-1.81,-29.73,-30.01,0,*54
1487271882.33,54762,14.63,74226.0,-1.77,-29.83,-30.01,0,*51
1487271883.63,54763,14.63,74226.8,-1.77,-29.89,-30.17,0,*5D
1487271884.84,54764,14.63,74228.3,-1.81,-30.11,-30.33,0,*5C
1487271886.13,54765,14.63,74232.3,-1.77,-29.89,-30.05,0,*58
1487271887.39,54766,14.63,74224.0,-1.77,-30.05,-30.33,0,*52
1487271888.65,54767,14.63,74226.8,-1.75,-30.17,-30.39,0,*58
1487271889.89,54768,14.63,74222.3,-1.75,-30.17,-30.33,0,*5D
1487271891.13,54769,14.63,74218.3,-1.75,-30.23,-30.51,0,*5F
1487271892.38,54770,14.63,74222.3,-1.75,-30.39,-30.73,0,*5C
1487271893.63,54771,14.63,74220.0,-1.75,-30.51,-30.83,0,*5C
1487271894.89,54772,14.63,74218.5,-1.75,-30.51,-30.73,0,*50
1487271896.15,54773,14.63,74216.8,-1.75,-30.55,-30.89,0,*50
1487271897.44,54774,14.63,74220.0,-1.77,-30.51,-30.89,0,*51
1487271898.71,54775,14.63,74220.8,-1.77,-30.55,-30.83,0,*5E
1487271899.97,54776,14.63,74220.8,-1.77,-30.67,-30.95,0,*5B
1487271901.23,54777,14.63,74216.5,-1.77,-30.67,-30.95,0,*5A
1487271902.52,54778,14.63,74216.3,-1.77,-30.73,-30.95,0,*50
1487271903.78,54779,14.63,74218.3,-1.77,-30.67,-30.95,0,*54
1487271905.07,54780,14.63,74218.5,-1.77,-30.73,-30.95,0,*57
1487271906.3,54781,14.63,74220.8,-1.81,-30.95,-31.17,0,*5C
1487271907.57,54782,14.63,74224.5,-1.77,-30.67,-30.89,0,*5D
1487271908.8,54783,14.63,74220.5,-1.81,-30.61,-31.01,0,*52
1487271910.01,54784,14.63,74226.5,-1.81,-30.67,-30.83,0,*58
1487271911.28,54785,14.63,74226.0,-1.77,-30.55,-30.83,0,*51
1487271912.48,54786,14.63,74222.0,-1.81,-30.83,-31.05,0,*5F
1487271913.69,54787,14.63,74222.0,-1.81,-31.01,-31.17,0,*56
1487271914.89,54788,14.63,74222.8,-1.81,-31.01,-31.17,0,*59
1487271916.09,54789,14.63,74222.3,-1.81,-31.01,-31.17,0,*58
1487271917.33,54790,14.63,74220.0,-1.81,-30.95,-31.17,0,*5C
1487271918.53,54791,14.63,74230.3,-1.81,-31.01,-31.17,0,*51
1487271919.76,54792,14.63,74228.8,-1.81,-30.77,-31.01,0,*55
1487271921.03,54793,14.63,74226.8,-1.83,-30.45,-30.77,0,*57
1487271922.32,54794,14.63,74226.5,-1.83,-30.51,-30.77,0,*55
1487271923.58,54795,14.63,74230.8,-1.83,-30.77,-31.05,0,*54
1487271924.83,54796,14.63,74228.3,-1.83,-30.61,-31.01,0,*54
1487271926.12,54797,14.63,74228.5,-1.83,-30.77,-31.11,0,*53
1487271927.36,54798,14.63,74230.5,-1.83,-30.83,-31.05,0,*52
1487271928.65,54799,14.63,74230.0,-1.83,-30.51,-30.77,0,*58
1487271929.91,54800,14.63,74228.3,-1.83,-30.51,-30.83,0,*5C
1487271931.15,54801,14.63,74230.3,-1.83,-30.83,-31.05,0,*5D
1487271932.41,54802,14.63,74230.8,-1.83,-30.77,-31.05,0,*55
1487271933.66,54803,14.63,74232.8,-1.83,-30.61,-31.01,0,*57
1487271934.93,54804,14.63,74228.5,-1.83,-30.45,-30.77,0,*56
1487271936.19,54805,14.63,74228.5,-1.83,-30.77,-31.05,0,*52
1487271937.45,54806,14.63,74234.0,-1.83,-30.61,-30.83,0,*59
1487271938.71,54807,14.63,74226.5,-1.83,-30.51,-30.83,0,*5B
1487271939.97,54808,14.63,74226.0,-1.85,-30.89,-31.11,0,*5D
1487271941.18,54809,14.63,74224.3,-1.85,-30.83,-31.05,0,*53
1487271942.42,54810,14.63,74230.0,-1.85,-30.67,-30.89,0,*54
1487271943.67,54811,14.63,74226.3,-1.85,-30.89,-31.11,0,*55
1487271944.91,54812,14.63,74230.0,-1.83,-30.83,-31.05,0,*5F
1487271946.15,54813,14.63,74226.5,-1.85,-30.83,-31.23,0,*5C
1487271947.37,54814,14.63,74226.8,-1.85,-30.33,-30.55,0,*50
1487271948.65,54815,14.56,74222.5,-1.83,-30.51,-30.95,0,*5F
1487271949.88,54816,14.63,74218.5,-1.85,-30.39,-30.67,0,*59
1487271951.1,54817,14.63,74220.5,-1.85,-30.55,-31.01,0,*53
1487271952.36,54818,14.63,74224.8,-1.85,-30.51,-30.73,0,*5C
1487271953.62,54819,14.63,74224.0,-1.83,-30.27,-30.51,0,*5A
1487271954.85,54820,14.63,74224.0,-1.81,-30.17,-30.45,0,*54
1487271956.12,54821,14.63,74224.5,-1.83,-30.27,-30.61,0,*52
1487271957.35,54822,14.63,74224.5,-1.85,-30.55,-30.83,0,*5E
1487271958.56,54823,14.63,74226.8,-1.85,-30.83,-31.05,0,*5B
1487271959.8,54824,14.63,74228.3,-1.83,-30.67,-31.05,0,*50
1487271961.05,54825,14.63,74224.8,-1.85,-30.73,-31.11,0,*57
1487271962.29,54826,14.63,74228.3,-1.83,-30.83,-31.17,0,*5B
1487271963.55,54827,14.63,74230.3,-1.85,-30.77,-31.23,0,*50
1487271964.79,54828,14.63,74226.5,-1.85,-30.83,-31.23,0,*54
1487271966.02,54829,14.63,74226.8,-1.85,-30.83,-31.11,0,*54
1487271967.25,54830,14.63,74224.5,-1.85,-30.73,-31.05,0,*56
1487271968.45,54831,14.63,74228.8,-1.85,-30.67,-31.01,0,*56
1487271969.68,54832,14.63,74228.8,-1.85,-30.73,-31.01,0,*50
1487271970.89,54833,14.56,74228.0,-1.85,-30.83,-31.05,0,*5A
1487271972.13,54834,14.63,74228.5,-1.85,-30.67,-30.89,0,*52
1487271973.34,54835,14.56,74224.5,-1.85,-30.33,-30.67,0,*52
1487271974.61,54836,14.63,74228.8,-1.87,-30.39,-30.55,0,*58
1487271975.84,54837,14.63,74224.8,-1.87,-30.33,-30.67,0,*52
1487271977.07,54838,14.63,74220.3,-1.85,-30.05,-30.23,0,*5A
1487271978.29,54839,14.63,74220.3,-1.85,-30.23,-30.51,0,*5A
1487271979.53,54840,14.63,74222.8,-1.85,-30.51,-30.83,0,*5E
1487271980.78,54841,14.63,74228.8,-1.85,-30.55,-30.89,0,*51
1487271982.03,54842,14.63,74226.0,-1.85,-30.17,-30.39,0,*5F
1487271983.29,54843,14.63,74226.3,-1.85,-30.05,-30.51,0,*53
1487271984.52,54844,14.63,74220.3,-1.85,-30.33,-30.73,0,*51
1487271985.78,54845,14.63,74226.3,-1.83,-30.33,-30.61,0,*55
1487271987.04,54846,14.63,74226.0,-1.83,-30.51,-31.01,0,*55
1487271988.29,54847,14.63,74226.8,-1.85,-30.39,-30.73,0,*58
1487271989.55,54848,14.63,74228.0,-1.83,-30.45,-30.77,0,*5E
1487271990.85,54849,14.63,74228.5,-1.83,-30.51,-30.77,0,*5A
1487271992.1,54850,14.63,74228.8,-1.85,-30.61,-30.89,0,*56
1487271993.36,54851,14.63,74224.0,-1.85,-30.39,-30.73,0,*5F
1487271994.61,54852,14.63,74230.0,-1.83,-30.01,-30.27,0,*50
1487271995.91,54853,14.63,74228.8,-1.83,-29.89,-30.17,0,*5A
1487271997.17,54854,14.56,74222.8,-1.83,-29.79,-30.17,0,*52
1487271998.38,54855,14.63,74230.0,-1.81,-29.95,-30.27,0,*50
1487271999.62,54856,14.63,74228.0,-1.81,-30.17,-30.45,0,*55
1487272000.85,54857,14.63,74232.0,-1.81,-30.27,-30.61,0,*51
1487272002.1,54858,14.63,74232.8,-1.81,-30.51,-30.95,0,*54
1487272003.34,54859,14.63,74232.8,-1.81,-30.51,-30.67,0,*58
1487272004.58,54860,14.63,74234.3,-1.81,-30.27,-30.61,0,*55
1487272005.83,54861,14.63,74230.8,-1.81,-30.51,-30.95,0,*5E
1487272007.08,54862,14.63,74230.3,-1.81,-30.61,-30.95,0,*5E
1487272008.34,54863,14.63,74230.8,-1.81,-30.51,-30.77,0,*50
1487272009.59,54864,14.63,74230.5,-1.81,-30.51,-30.95,0,*5B
1487272010.8,54865,14.63,74230.3,-1.81,-30.67,-31.05,0,*57
1487272012.0,54866,14.63,74228.5,-1.85,-30.83,-31.05,0,*5A
1487272013.26,54867,14.63,74228.0,-1.83,-30.77,-31.05,0,*56
1487272014.52,54868,14.63,74232.0,-1.83,-30.77,-31.05,0,*59
1487272015.78,54869,14.63,74230.0,-1.83,-30.61,-31.01,0,*5B
1487272017.04,54870,14.63,74230.3,-1.83,-30.83,-31.23,0,*5F
1487272018.28,54871,14.63,74228.5,-1.83,-30.67,-31.17,0,*53
1487272019.54,54872,14.56,74226.5,-1.85,-30.89,-31.23,0,*51
1487272020.78,54873,14.63,74230.3,-1.85,-30.83,-31.23,0,*5A
1487272022.02,54874,14.63,74228.8,-1.85,-30.83,-31.23,0,*5D
1487272023.24,54875,14.63,74230.3,-1.85,-30.73,-31.05,0,*57
1487272024.48,54876,14.56,74224.8,-1.83,-30.67,-31.01,0,*53
1487272025.71,54877,14.63,74224.5,-1.85,-30.67,-31.11,0,*55
1487272026.97,54878,14.63,74226.0,-1.85,-30.89,-31.23,0,*5B
1487272028.23,54879,14.63,74224.8,-1.85,-30.89,-31.23,0,*5A
1487272029.47,54880,14.63,74230.8,-1.83,-30.67,-31.05,0,*5E
1487272030.72,54881,14.63,74230.3,-1.85,-30.73,-31.11,0,*59
1487272031.98,54882,14.63,74234.3,-1.85,-30.73,-31.11,0,*5A
1487272033.23,54883,14.63,74230.0,-1.85,-30.73,-31.11,0,*5B
1487272034.49,54884,14.63,74230.5,-1.85,-30.73,-31.11,0,*5C
1487272035.75,54885,14.63,74228.5,-1.85,-30.51,-30.73,0,*58
1487272037.0,54886,14.63,74228.5,-1.87,-30.39,-30.67,0,*52
1487272038.25,54887,14.63,74228.0,-1.87,-30.55,-31.05,0,*5C
1487272039.48,54888,14.63,74230.3,-1.87,-30.67,-31.05,0,*52
1487272040.73,54889,14.63,74230.0,-1.87,-30.55,-30.83,0,*5D
1487272041.99,54890,14.63,74226.0,-1.87,-30.39,-30.83,0,*5F
1487272043.26,54891,14.63,74226.5,-1.83,-30.17,-30.67,0,*5C
1487272044.5,54892,14.63,74220.3,-1.85,-30.17,-30.67,0,*59
1487272045.75,54893,14.63,74222.8,-1.85,-30.51,-30.89,0,*5A
1487272046.99,54894,14.63,74218.0,-1.85,-30.83,-31.11,0,*52
1487272048.22,54895,14.56,74218.8,-1.85,-30.83,-31.23,0,*52
1487272049.46,54896,14.56,74216.0,-1.85,-30.83,-31.11,0,*50
1487272050.71,54897,14.63,74222.0,-1.87,-30.67,-31.11,0,*59
1487272051.99,54898,14.63,74222.8,-1.87,-30.73,-31.11,0,*53
1487272053.23,54899,14.63,74226.3,-1.89,-30.95,-31.29,0,*5F
1487272054.48,54900,14.63,74226.3,-1.87,-31.01,-31.23,0,*56
1487272055.71,54901,14.63,74226.8,-1.89,-30.95,-31.33,0,*54
1487272056.96,54902,14.63,74226.0,-1.87,-31.05,-31.39,0,*5B
1487272058.19,54903,14.56,74226.0,-1.87,-31.05,-31.45,0,*51
1487272059.45,54904,14.63,74230.8,-1.89,-31.11,-31.61,0,*5B
1487272060.7,54905,14.63,74230.3,-1.87,-31.05,-31.57,0,*54
1487272061.93,54906,14.63,74228.8,-1.89,-31.29,-31.61,0,*52
1487272063.13,54907,14.63,74228.5,-1.89,-31.05,-31.29,0,*51
1487272064.36,54908,14.63,74230.5,-1.89,-30.95,-31.33,0,*5D
1487272065.62,54909,14.56,74224.5,-1.89,-30.73,-31.11,0,*54
1487272066.88,54910,14.63,74226.8,-1.87,-30.67,-30.89,0,*57
1487272068.14,54911,14.63,74228.3,-1.89,-30.61,-31.11,0,*5E
1487272069.4,54912,14.63,74228.8,-1.91,-30.83,-31.23,0,*59
1487272070.63,54913,14.56,74230.5,-1.89,-30.77,-31.33,0,*5B
1487272071.89,54914,14.63,74230.5,-1.91,-30.95,-31.33,0,*59
1487272073.11,54915,14.63,74228.5,-1.91,-31.01,-31.33,0,*54
1487272074.37,54916,14.63,74228.3,-1.91,-30.77,-31.17,0,*51
1487272075.63,54917,14.63,74228.0,-1.91,-30.77,-31.17,0,*50
1487272076.9,54918,14.63,74230.0,-1.91,-30.83,-31.23,0,*53
1487272078.13,54919,14.63,74232.3,-1.91,-31.01,-31.33,0,*58
1487272079.41,54920,14.56,74234.0,-1.91,-31.11,-31.57,0,*51
1487272080.67,54921,14.56,74232.0,-1.93,-31.23,-31.51,0,*55
1487272081.96,54922,14.63,74236.8,-1.91,-31.11,-31.51,0,*55
1487272083.18,54923,14.63,74236.5,-1.93,-30.95,-31.33,0,*5F
1487272084.44,54924,14.63,74232.5,-1.91,-30.67,-30.95,0,*5A
1487272085.68,54925,14.63,74230.8,-1.93,-30.45,-30.77,0,*55
1487272086.93,54926,14.63,74232.5,-1.91,-30.61,-31.01,0,*52
1487272088.16,54927,14.56,74234.3,-1.89,-30.45,-30.61,0,*5B
1487272089.39,54928,14.63,74238.0,-1.89,-30.61,-31.05,0,*51
1487272090.62,54929,14.63,74234.5,-1.91,-30.67,-31.01,0,*5B
1487272091.87,54930,14.63,74232.5,-1.91,-30.45,-30.95,0,*5F
1487272093.15,54931,14.63,74234.3,-1.91,-30.77,-31.11,0,*52
1487272094.42,54932,14.63,74234.8,-1.91,-30.83,-31.23,0,*5B
1487272095.67,54933,14.63,74236.5,-1.91,-31.01,-31.39,0,*5A
1487272096.93,54934,14.56,74228.8,-1.91,-30.95,-31.33,0,*5B
1487272098.13,54935,14.56,74230.0,-1.93,-31.01,-31.33,0,*54